Regional Weather Roundup
Issued by NWS Green Bay, WI

Home | Current Version | Previous Version | Text Only | Print | Product List | Glossary On
Versions: 1 2 3 4 5 6 7 8 9 10 11 12 13 14 15 16 17 18 19 20 21 22 23 24 25 26 27 28 29 30 31 32 33 34 35 36 37 38 39 40 41 42 43 44 45 46 47 48 49 50
000
ASUS43 KGRB 180610
RWRGRB

NORTH-CENTRAL AND NORTHEAST WISCONSIN REGIONAL WEATHER ROUNDUP
NATIONAL WEATHER SERVICE GREEN BAY WI
100 AM CDT SAT APR 18 2015

WIZ005-009-010>012-018-019-180700-
NORTH CENTRAL WISCONSIN

CITY           SKY/WX    TMP DP  RH WIND       PRES   REMARKS
IRONWOOD         N/A     50  28  43 NE7       30.08R
MANITOWISH WTR   N/A     52  28  38 N10       30.06R
ARBOR VITAE      N/A     53  30  42 N13       30.04R
EAGLE RIVER      N/A     49  26  40 N8        30.04R
LAND O LAKES     N/A     53  25  33 N10G17    30.06R
RHINELANDER      N/A     52  27  38 W5        30.02F
PHILLIPS         N/A     44  32  63 CALM      30.02F
ANTIGO           N/A     48  39  71 CALM      30.02S
TOMAHAWK         N/A     45  29  55 CALM      30.03F
MERRILL          N/A     42  35  74 CALM      30.02S
$$

WIZ013-073-180700-
NORTHEAST WISCONSIN

CITY           SKY/WX    TMP DP  RH WIND       PRES   REMARKS
IRON MOUNTAIN    N/A     40  35  83 N3        29.98S
MARINETTE        N/A     41  36  81 CALM      29.98F
OCONTO           N/A     40  37  89 CALM      29.99F
$$

WIZ017-030-035>037-045-180700-
CENTRAL WISCONSIN

CITY           SKY/WX    TMP DP  RH WIND       PRES   REMARKS
MEDFORD          N/A     52  28  40 CALM      30.04R
WAUSAU           N/A     52  39  61 NW5       30.01R
MOSINEE          N/A     52  34  50 NW6       30.03S
MARSHFIELD       N/A     53  36  52 N9        30.03R
WISC RAPIDS      N/A     55  37  50 N8        30.03R
STEVENS POINT    N/A     44  39  83 CALM      30.03R
WAUPACA          N/A     50  43  77 CALM      30.01S
SHAWANO          N/A     51  43  74 CALM      30.00R
CLINTONVILLE     N/A     48  43  81 CALM      30.00S
$$

WIZ038-039-048-051-180700-
FOX VALLEY

CITY           SKY/WX    TMP DP  RH WIND       PRES   REMARKS
NWS GREEN BAY    N/A     50  44  80 W6        29.99R
APPLETON         N/A     50  43  76 W8        30.01R
OSHKOSH          N/A     57  43  59 W7        30.00R
FOND DU LAC      N/A     54  42  64 SW6       30.00S
$$

WIZ022-050-052-180700-
EAST CENTRAL WISCONSIN

CITY           SKY/WX    TMP DP  RH WIND       PRES   REMARKS
STURGEON BAY     N/A     46  37  71 NW5       30.01S
MANITOWOC        N/A     55  42  61 W7        29.99S
SHEBOYGAN        N/A     50  41  71 SW5       29.99S
$$

LMZ563-521-522-541>543-180700-
LAKESHORE

STATION/POSITION TIME  TEMP    WIND        PRES    VSBY  WAVE
                       AIR SEA DIR/SP/G                  HT/PER
                 (UTC) (F)     (DEG/KT/KT) (MB)    (MI)  (FT/S)
SHEBOYGAN LKSHOR 0600   55     230/  5/  6 1016.1R
KEWAUNEE LKSHORE 0600   53     300/  6/  8 1014.3S
NORTHPORT PIER   0600   42        CALM     1015.2S
SISTER BAY LKSHO 0500   44        CALM       N/A
CHAMBERS ISLAND  0600   40     130/  1/  2 1015.6F
MENOMINEE LKSHOR 0600   45      30/  3/  4 1016.0F
$$



USA.gov is the U.S. government's official web portal to all federal, state and local government web resources and services.